Погода в Купросе

Россия / Пермский край     58°59′27″N   55°31′09″E
темп.,
°C
ветер,
м/с
пор.,
м/с
влажн.,
%
обл.,
%
осадки,
мм/ч
давл.,
гПа
погр.,
м
5 марта, пт
пт523:00−6юв3995100 1.1 986574
02:00−6в3696100 1.1 985278
05:00−8с2297100 1.3 98728
08:00−9зсз369699 0.3 990190
11:00−8зсз589197 0.4 994618
14:00−8зсз5889100 0.2 996607
17:00−9зсз498397 0.2 998719
20:00−13з36930 0.0 1000114
6 марта, сб
сб623:00−15з23964 0.0 100221
02:00−17зсз229785 0.0 100322
05:00−17з289681 0.0 1005224
08:00−19з3109656 0.0 1006268
11:00−17з479366 0.0 1007325
14:00−13з368893 0.0 1008524
17:00−12з368897 0.1 1009643
20:00−15зюз259698 0.1 1009120
7 марта, вс
вс723:00−16зюз239790 0.1 101086
02:00−19зюз229885 0.0 101035
05:00−19юз229884 0.1 101048
08:00−20юз229979 0.1 101042
11:00−16юз239187 0.1 1010290
14:00−13юз2383100 0.1 1009713
17:00−12зюз1284100 0.1 1008790
20:00−17ю1195100 0.0 100720
8 марта, пн
пн823:00−19ю129777 0.0 100820
02:00−20ююв1210071 0.0 100620
05:00−20юв2210077 0.1 100622
08:00−19вюв369899 0.0 1005173
11:00−16вюв379399 0.0 1003279
14:00−13вюв4792100 0.1 1001384
17:00−11юв3692100 0.4 1001611
20:00−12в2696100 0.4 1001239
9 марта, вт
вт923:00−13вюв2597100 0.8 1001124
02:00−13юв2297100 0.2 100051
05:00−13вюв2297100 0.4 99932
08:00−13всв2397100 0.1 99885
11:00−10с3593100 0.4 998286
14:00−8ссз4689100 0.1 1001594
17:00−10ссз3589100 0.2 1004601
20:00−15сз2596100 0.1 1006115